Location: Montreal
(45.5087°N, 73.5540°W)
Time: 04:20:31
(UTC-04:00)

OTV 5 (USA 277) - Visible Passes

Search period start: 20 September 2018 00:00
Search period end: 30 September 2018 00:00
Orbit: 387 x 394 km, 54.5° (Epoch: 08 September)

Date Brightness Start Highest point End Pass type
(mag) Time Alt. Az. Time Alt. Az. Time Alt. Az.
26 Sep ? 05:42:28 10° S 05:44:34 16° SE 05:46:40 10° E visible
28 Sep ? 05:25:17 13° SSW 05:27:35 29° SE 05:30:26 10° ENE visible
29 Sep ? 04:31:32 14° SE 04:31:32 14° SE 04:33:17 10° E visible
29 Sep ? 06:03:56 11° WSW 06:07:01 71° NNW 06:10:13 10° NE visible
